Regional Weather Roundup
Issued by NWS

Home | Current Version | Previous Version | Text Only | Print | Product List | Glossary Off
Versions: 1 2 3 4 5 6 7 8 9 10 11 12 13 14 15 16 17 18 19 20 21 22 23 24 25 26 27

000
ASUS45 KPSR 272110
RWRAZ

ARIZONA HOURLY REGIONAL WEATHER ROUNDUP
NATIONAL WEATHER SERVICE PHOENIX AZ
200 PM MST FRI MAY 27 2016

NOTE: FAIR INDICATES FEW OR NO CLOUDS BELOW 12,000 FEET WITH NO
SIGNIFICANT WEATHER AND/OR OBSTRUCTIONS TO VISIBILITY.

AZZ001>003-036-272200-
NORTHWEST ARIZONA

CITY           SKY/WX    TMP DP  RH WIND       PRES   REMARKS
BULLHEAD CITY  MOSUNNY   91  27   9 MISG      29.75F
KINGMAN        PTSUNNY   82  27  13 SW8G21    29.89F
$$

AZZ004>008-015-016-018-272200-
NORTH CENTRAL ARIZONA

CITY           SKY/WX    TMP DP  RH WIND       PRES   REMARKS
GRAND CANYON   CLOUDY    64  26  23 N10G17    30.03F
WILLIAMS       PTSUNNY   64  25  22 W16G23    30.11F
PRESCOTT       MOSUNNY   73  25  16 VRB5      29.96F
FLAGSTAFF      CLOUDY    61  26  26 W9G18     30.06F
PAYSON         MOSUNNY   75  25  15 W15G22    29.98F
PAGE           MOSUNNY   75  30  19 NW10G18   29.88F
$$

AZZ009>014-017-272200-
NORTHEAST ARIZONA

CITY           SKY/WX    TMP DP  RH WIND       PRES   REMARKS
WINSLOW        PTSUNNY   74  27  17 VRB6      29.94F
SAINT JOHNS    MOSUNNY   73  24  16 NW17G26   29.95F
WINDOW ROCK    MOSUNNY   68  23  18 W16G24    29.98F
SHOW LOW       PTSUNNY   64  23  20 W5        30.02F
$$

AZZ023-272200-
GREATER PHOENIX AREA

CITY           SKY/WX    TMP DP  RH WIND       PRES   REMARKS
PHOENIX        MOSUNNY   89  30  12 W10       29.77F
BUCKEYE        SUNNY     90  32  12 S7        29.80F
LUKE AFB       SUNNY     90  33  13 SW6       29.76F
DEER VALLEY    SUNNY     88  29  12 W9        29.79F
SCOTTSDALE     SUNNY     89  28  11 SW8G16    29.81F
MESA-GATEWAY   SUNNY     86  28  12 NW9       29.81F
CHANDLER       MOSUNNY   88  27  11 SW8       29.80F
$$

AZZ027-028-272200-
SOUTHWEST MARICOPA COUNTY AND PINAL COUNTY

CITY           SKY/WX    TMP DP  RH WIND       PRES   REMARKS
CASA GRANDE    SUNNY     88  32  13 S5        29.82F
GILA BEND      FAIR      89  31  12 W13       29.77F
$$

AZZ503-504-507>509-272200-
SOUTHEAST ARIZONA

CITY           SKY/WX    TMP DP  RH WIND       PRES   REMARKS
TUCSON         SUNNY     85  24  11 NW5       29.88F
DAVIS-MONTHAN  MOSUNNY   83  27  12 W8        29.86F
RYAN FIELD     SUNNY     84  27  12 W9        29.88F
NOGALES        SUNNY     83  18   9 W9G21     29.92F
SIERRA VISTA   SUNNY     76  20  12 VRB5      29.96F
DOUGLAS        SUNNY     79  18  10 VRB3      29.93F
SAFFORD        SUNNY     85  22  10 NW16G23   29.84F
$$

AZZ020-021-025-026-031-272200-
SOUTHWEST ARIZONA

CITY           SKY/WX    TMP DP  RH WIND       PRES   REMARKS
YUMA           SUNNY     91  38  15 S8G18     29.77F
$$

CAZ031-033-041-043-047-048-061-272200-
SOUTHERN CALIFORNIA

CITY           SKY/WX    TMP DP  RH WIND       PRES   REMARKS
DOWNTOWN L.A.  SUNNY     72  56  57 VRB5      29.87F
L.A. AIRPORT   MOSUNNY   68  55  63 W12       29.89F
SAN DIEGO      PTSUNNY   69  55  60 NW9       29.90F
BURBANK        SUNNY     74  55  51 VRB6      29.86F
ONTARIO        MOSUNNY   79  50  36 SW13G21   29.85F
RIVERSIDE      SUNNY     81  50  33 W12       29.85F
PALM SPRINGS   MOSUNNY   91  36  14 VRB7      29.75
EL CENTRO NAS  MOSUNNY   92  36  14 SE8       29.76F
IMPERIAL       SUNNY     93  39  15 W10       29.74F
BLYTHE         SUNNY     93  31  11 SE10      29.76F
NEEDLES        SUNNY     94  32  11 SE9       29.75F
$$

NVZ020-UTZ003-272200-
SOUTHERN NEVADA-UTAH

CITY           SKY/WX    TMP DP  RH WIND       PRES   REMARKS
LAS VEGAS      MOSUNNY   87  30  13 N6        29.77F
SALT LAKE CITY PTSUNNY   72  36  26 NW12G23   29.92S
$$

NMZ009-TXZ055-272200-
NEW MEXICO-WEST TEXAS

CITY           SKY/WX    TMP DP  RH WIND       PRES   REMARKS
ALBUQUERQUE    PTSUNNY   75  22  13 W22G28    29.88F
EL PASO        SUNNY     82  18   9 W13G20    29.87F
$$


........................KEY........................
SKY/WX - SKY CONDITION/WEATHER
TMP    - TEMPERATURE IN FAHRENHEIT
DP     - DEW POINT IN FAHRENHEIT
RH     - RELATIVE HUMIDITY IN PERCENT
WIND   - DIRECTION AND SPEED IN MILES PER HOUR (MPH)
VRB    - VARIABLE WIND DIRECTION
PRES   - MEAN SEA LEVEL PRESSURE IN INCHES OF MERCURY
         F - FALLING PRESSURE   R - RISING PRESSURE
         S - STEADY PRESSURE
VSB    - VISIBILITY IN MILES
HX     - HEAT INDEX IN FAHRENHEIT
WCI    - WIND CHILL INDEX IN FAHRENHEIT
TC     - TEMPERATURE IN CELSIUS WHICH IS ALSO KNOWN AS
         TEMPERATURE IN CENTIGRADE
AFB    - AIR FORCE BASE
         LUKE AFB IS LUKE AIR FORCE BASE
         DAVIS-MONTHAN IS DAVIS-MONTHAN AIR FORCE BASE
NAS    - NAVAL AIR STATION
         EL CENTRO NAS IS EL CENTRO NAVAL AIR STATION
N/A    - NOT AVAILABLE





USA.gov is the U.S. government's official web portal to all federal, state and local government web resources and services.